DW2380 Weather Reports


time (UTC)temp
C
wind
direction
speed
KPH
gust
KPH
rain 1hr
cm
rain 24hr
cm
rain mn
cm
humidity
%
barometer
mb
20260506103048 10 305 12.9 24.1 0.00 0.00 0.00 37 1013.2
20260506102539 10 286 11.3 19.3 0.00 0.00 0.00 39 1013.3
20260506102038 10 267 4.8 16.1 0.00 0.00 0.00 38 1013.2
20260506101554 10 15 4.8 20.9 0.00 0.00 0.00 37 1013.2
20260506101039 10 323 9.7 22.5 0.00 0.00 0.00 39 1013.3
20260506100538 10 290 9.7 22.5 0.00 0.00 0.00 41 1013.2
20260506100042 10 312 11.3 20.9 0.00 0.00 0.00 39 1013.2
20260506095543 10 323 8.0 19.3 0.00 0.00 0.00 41 1013.2
20260506095038 10 281 4.8 17.7 0.00 0.00 0.00 44 1013.1
20260506094557 9 269 9.7 30.6 0.00 0.00 0.00 45 1013.2
20260506094038 9 271 11.3 30.6 0.00 0.00 0.00 41 1013.1
20260506093542 10 298 11.3 30.6 0.00 0.00 0.00 41 1013.0
20260506093047 9 294 6.4 20.9 0.00 0.00 0.00 45 1012.9
20260506092540 8 317 8.0 27.4 0.00 0.00 0.00 42 1013.0
20260506092038 10 336 12.9 27.4 0.00 0.00 0.00 42 1013.0
20260506091544 11 323 11.3 24.1 0.00 0.00 0.00 45 1013.0
20260506091040 10 298 6.4 27.4 0.00 0.00 0.00 45 1012.9
20260506090539 10 257 14.5 27.4 0.00 0.00 0.00 51 1012.8
20260506090044 9 279 9.7 22.5 0.00 0.00 0.00 51 1012.9
20260506085536 9 258 12.9 22.5 0.00 0.00 0.00 50 1012.9
20260506085037 10 266 14.5 20.9 0.00 0.00 0.00 47 1012.9
20260506084552 10 270 9.7 17.7 0.00 0.00 0.00 48 1012.9
20260506084037 8 331 6.4 17.7 0.00 0.00 0.00 47 1012.9
20260506083541 8 305 9.7 27.4 0.00 0.00 0.00 47 1012.9
20260506083050 8 261 12.9 27.4 0.00 0.00 0.00 47 1012.8
20260506082542 8 296 8.0 20.9 0.00 0.00 0.00 51 1012.9
20260506082040 8 341 11.3 20.9 0.00 0.00 0.00 46 1012.8
20260506081553 10 248 12.9 20.9 0.00 0.00 0.00 47 1012.8
20260506081038 10 327 4.8 17.7 0.00 0.00 0.00 48 1012.7
20260506080537 9 254 8.0 17.7 0.00 0.00 0.00 47 1012.7
20260506073058 8 257 11.3 20.9 0.00 0.00 0.00 49 1012.4
20260506072539 8 292 4.8 16.1 0.00 0.00 0.00 49 1012.4
20260506072041 8 307 6.4 19.3 0.00 0.00 0.00 53 1012.4
20260506071600 8 288 9.7 19.3 0.00 0.00 0.00 49 1012.3
20260506071038 9 302 6.4 20.9 0.00 0.00 0.00 50 1012.3
20260506070538 8 292 11.3 20.9 0.00 0.00 0.00 51 1012.3
20260506062039 7 255 6.4 14.5 0.00 0.00 0.00 60 1012.0
20260506061547 7 263 3.2 12.9 0.00 0.00 0.00 59 1012.0
20260506061039 7 244 6.4 11.3 0.00 0.00 0.00 62 1011.9
20260506060539 7 185 4.8 9.7 0.00 0.00 0.00 64 1011.9
20260506051038 5 272 6.4 11.3 0.00 0.00 0.00 79 1011.5
20260506050538 5 244 4.8 9.7 0.00 0.00 0.00 82 1011.6
20260506045037 3 244 3.2 6.4 0.00 0.00 0.00 87 1011.4
20260506044553 3 217 1.6 4.8 0.00 0.00 0.00 88 1011.4
20260506044038 3 205 1.6 4.8 0.00 0.00 0.00 90 1011.3
20260506043543 2 12 0.0 3.2 0.00 0.00 0.00 90 1011.2
20260506043046 1 12 0.0 3.2 0.00 0.00 0.00 90 1011.2
20260506042540 1 5 0.0 3.2 0.00 0.00 0.00 90 1011.2
20260506042041 1 9 0.0 3.2 0.00 0.00 0.00 90 1011.1
20260506041557 0 338 0.0 3.2 0.00 0.00 0.00 91 1011.1
20260506041036 0 0 0.0 1.6 0.00 0.00 0.00 91 1011.1
20260506040538 0 0 0.0 0.0 0.00 0.00 0.00 91 1011.1
20260506040054 0 0 0.0 0.0 0.00 0.00 0.00 91 1011.0
20260506035542 -1 0 0.0 0.0 0.00 0.00 0.00 91 1011.0
20260506035040 -1 0 0.0 0.0 0.00 0.00 0.00 91 1010.9
20260506034548 -1 0 0.0 0.0 0.00 0.00 0.00 92 1010.9
20260506034037 -1 0 0.0 0.0 0.00 0.00 0.00 92 1010.8
20260506033542 -2 0 0.0 0.0 0.00 0.00 0.00 91 1010.8
20260506033045 -2 0 0.0 0.0 0.00 0.00 0.00 91 1010.7
20260506032538 -2 0 0.0 0.0 0.00 0.00 0.00 91 1010.6
20260506032040 -2 0 0.0 0.0 0.00 0.00 0.00 91 1010.5
20260506031546 -3 0 0.0 0.0 0.00 0.00 0.00 91 1010.4
20260506031040 -3 0 0.0 0.0 0.00 0.00 0.00 91 1010.4
20260506030540 -3 0 0.0 1.6 0.00 0.00 0.00 91 1010.4
20260506030051 -3 0 0.0 3.2 0.00 0.00 0.00 91 1010.3
20260506025541 -3 0 0.0 3.2 0.00 0.00 0.00 91 1010.3
20260506025038 -3 313 0.0 3.2 0.00 0.00 0.00 91 1010.2
20260506024543 -3 0 1.6 3.2 0.00 0.00 0.00 91 1010.1
20260506024038 -3 313 0.0 1.6 0.00 0.00 0.00 91 1010.1
20260506023538 -3 0 0.0 1.6 0.00 0.00 0.00 91 1010.1
20260506023051 -3 0 0.0 0.0 0.00 0.00 0.00 91 1010.2
20260506022538 -3 0 0.0 0.0 0.00 0.00 0.00 91 1010.1
20260506022038 -3 0 0.0 0.0 0.00 0.00 0.00 90 1010.1
20260506021553 -3 0 0.0 0.0 0.00 0.00 0.00 90 1010.1
20260506021039 -3 0 0.0 0.0 0.00 0.00 0.00 91 1010.1
20260506020537 -3 0 0.0 0.0 0.00 0.00 0.00 91 1010.1
20260506020051 -3 0 0.0 0.0 0.00 0.00 0.00 90 1010.0
20260506015540 -3 0 0.0 0.0 0.00 0.00 0.00 91 1010.0
20260506015040 -3 0 0.0 0.0 0.00 0.00 0.00 91 1010.0
20260506014557 -3 0 0.0 0.0 0.00 0.00 0.00 91 1010.0
20260506014038 -3 0 0.0 0.0 0.00 0.00 0.00 90 1009.9
20260506013539 -3 0 0.0 0.0 0.00 0.00 0.00 90 1009.8
20260506013043 -3 0 0.0 0.0 0.00 0.00 0.00 90 1009.7
20260506012539 -3 0 0.0 0.0 0.00 0.00 0.00 90 1009.6
20260506012040 -3 0 0.0 0.0 0.00 0.00 0.00 90 1009.6
20260506011546 -3 0 0.0 0.0 0.00 0.00 0.00 90 1009.6
20260506011038 -3 0 0.0 0.0 0.00 0.00 0.00 90 1009.5
20260506010541 -3 0 0.0 0.0 0.00 0.00 0.00 90 1009.5
20260506010050 -3 0 0.0 0.0 0.00 0.00 0.00 90 1009.5
20260506005540 -3 0 0.0 1.6 0.00 0.00 0.00 90 1009.4
20260506005038 -3 0 0.0 1.6 0.00 0.00 0.00 90 1009.4
20260506004547 -2 0 0.0 3.2 0.00 0.00 0.00 90 1009.3
20260506004038 -2 0 0.0 3.2 0.00 0.00 0.00 90 1009.3
20260506003539 -2 256 0.0 3.2 0.00 0.00 0.00 90 1009.2
20260506003047 -3 256 0.0 1.6 0.00 0.00 0.00 90 1009.2
20260506002542 -2 0 0.0 3.2 0.00 0.00 0.00 90 1009.2
20260506002038 -2 0 0.0 3.2 0.00 0.00 0.00 90 1009.2
20260506001609 -2 256 0.0 3.2 0.00 0.00 0.00 90 1009.2
20260506001039 -2 0 0.0 3.2 0.00 0.00 0.00 90 1009.2
20260506000539 -2 256 0.0 0.0 0.00 0.00 0.00 89 1009.1
20260506000055 -2 0 0.0 0.0 0.00 0.00 0.00 89 1009.1
20260505235538 -2 0 0.0 0.0 0.00 0.00 0.00 89 1009.0
20260505235038 -2 0 0.0 3.2 0.00 0.00 0.00 90 1009.0
20260505234553 -2 0 0.0 3.2 0.00 0.00 0.00 90 1009.0
20260505234039 -2 257 1.6 3.2 0.00 0.00 0.00 89 1008.9
20260505233539 -2 256 0.0 1.6 0.00 0.00 0.00 89 1008.9
20260505233056 -2 0 0.0 0.0 0.00 0.00 0.00 89 1008.9
20260505232538 -2 0 0.0 1.6 0.00 0.00 0.00 90 1008.9
20260505232039 -2 0 0.0 1.6 0.00 0.00 0.00 89 1008.9
20260505231555 -2 256 0.0 1.6 0.00 0.00 0.00 89 1008.8
20260505231041 -2 0 0.0 1.6 0.00 0.00 0.00 89 1008.9
20260505230539 -2 0 0.0 3.2 0.00 0.00 0.00 89 1008.9
20260505230110 -2 0 0.0 3.2 0.00 0.00 0.00 89 1008.9
20260505225539 -2 256 0.0 3.2 0.00 0.00 0.00 89 1008.8
20260505225039 -2 0 0.0 3.2 0.00 0.00 0.00 89 1008.8
20260505224552 -2 257 0.0 3.2 0.00 0.00 0.00 89 1008.9
20260505224039 -2 0 0.0 0.0 0.00 0.00 0.00 88 1008.9
20260505223538 -2 0 0.0 0.0 0.00 0.00 0.00 88 1008.8
20260505223058 -1 0 0.0 0.0 0.00 0.00 0.00 88 1008.8
20260505222538 -1 0 0.0 0.0 0.00 0.00 0.00 88 1008.7
20260505222038 -1 0 0.0 0.0 0.00 0.00 0.00 88 1008.8
20260505221553 -1 0 0.0 0.0 0.00 0.00 0.00 87 1008.7
20260505221039 -1 0 0.0 0.0 0.00 0.00 0.00 87 1008.7
20260505220542 -1 0 0.0 0.0 0.00 0.00 0.00 87 1008.7
20260505220052 -1 0 0.0 0.0 0.00 0.00 0.00 87 1008.7
20260505215539 -1 0 0.0 1.6 0.00 0.00 0.00 87 1008.7
20260505215039 -1 0 0.0 1.6 0.00 0.00 0.00 88 1008.6
20260505214559 -1 0 0.0 0.0 0.00 0.00 0.00 87 1008.5
20260505214037 -1 0 0.0 0.0 0.00 0.00 0.00 87 1008.5
20260505213537 -1 0 0.0 0.0 0.00 0.00 0.00 87 1008.6
20260505213054 -1 0 0.0 0.0 0.00 0.00 0.00 87 1008.5
20260505212539 -1 0 0.0 0.0 0.00 0.00 0.00 87 1008.4
20260505212039 -1 0 0.0 0.0 0.00 0.00 0.00 86 1008.4
20260505211548 -1 0 0.0 1.6 0.00 0.00 0.00 86 1008.4
20260505211039 -1 0 0.0 3.2 0.00 0.00 0.00 85 1008.4
20260505210536 -1 0 0.0 3.2 0.00 0.00 0.00 85 1008.4
20260505210053 -1 0 0.0 3.2 0.00 0.00 0.00 84 1008.3
20260505205538 -1 0 0.0 1.6 0.00 0.00 0.00 83 1008.3
20260505205039 0 0 0.0 0.0 0.00 0.00 0.00 83 1008.2
20260505204543 0 0 0.0 3.2 0.00 0.00 0.00 82 1008.2
20260505204039 0 0 0.0 3.2 0.00 0.00 0.00 81 1008.0
20260505203539 0 256 1.6 3.2 0.00 0.00 0.00 81 1008.0
20260505203052 0 256 1.6 3.2 0.00 0.00 0.00 81 1008.0
20260505202538 0 256 1.6 3.2 0.00 0.00 0.00 79 1007.9
20260505202040 0 256 1.6 3.2 0.00 0.00 0.00 80 1007.9
20260505201554 0 256 0.0 1.6 0.00 0.00 0.00 80 1007.8
20260505201039 0 0 0.0 0.0 0.00 0.00 0.00 79 1007.7
20260505200540 0 0 0.0 1.6 0.00 0.00 0.00 79 1007.7
20260505200047 1 0 0.0 1.6 0.00 0.00 0.00 79 1007.7
20260505195538 1 0 0.0 3.2 0.00 0.08 0.00 78 1007.6
20260505195042 1 0 0.0 3.2 0.00 0.08 0.00 78 1007.6
20260505194555 1 256 1.6 4.8 0.00 0.08 0.00 77 1007.5
20260505194040 1 256 1.6 4.8 0.00 0.08 0.00 76 1007.5
20260505193543 2 256 3.2 6.4 0.00 0.08 0.00 75 1007.5
20260505193051 2 259 3.2 6.4 0.00 0.08 0.00 73 1007.5
20260505192542 2 265 3.2 6.4 0.00 0.08 0.00 73 1007.5
20260505192038 2 264 3.2 6.4 0.00 0.08 0.00 73 1007.5
20260505191555 2 254 4.8 6.4 0.00 0.08 0.00 73 1007.4
20260505191038 2 265 3.2 6.4 0.00 0.08 0.00 72 1007.4
20260505190539 3 268 3.2 9.7 0.00 0.08 0.00 72 1007.4
20260505190105 3 277 3.2 9.7 0.00 0.08 0.00 71 1007.3
20260505185539 3 287 4.8 9.7 0.00 0.08 0.00 71 1007.3
20260505185039 3 271 3.2 9.7 0.00 0.08 0.00 71 1007.3
20260505184600 3 277 4.8 9.7 0.00 0.08 0.00 70 1007.3
20260505184039 3 265 4.8 9.7 0.00 0.08 0.00 70 1007.2
20260505183542 4 271 3.2 9.7 0.00 0.08 0.00 68 1007.2
20260505183050 4 267 4.8 16.1 0.00 0.08 0.00 68 1007.1
20260505182539 5 277 4.8 16.1 0.00 0.08 0.00 66 1007.1
20260505182038 5 277 6.4 17.7 0.00 0.08 0.00 66 1007.0
20260505181544 5 254 6.4 17.7 0.00 0.08 0.00 66 1007.0
20260505181041 5 271 9.7 17.7 0.00 0.08 0.00 65 1006.9
20260505180539 5 270 6.4 20.9 0.00 0.08 0.00 65 1006.9
20260505180046 5 284 12.9 20.9 0.00 0.08 0.00 64 1006.8
20260505175539 5 256 4.8 14.5 0.00 0.08 0.00 64 1006.8
20260505175039 5 291 6.4 16.1 0.00 0.08 0.00 64 1006.7
20260505174548 5 284 4.8 16.1 0.00 0.08 0.00 63 1006.8
20260505174056 5 317 9.7 17.7 0.00 0.08 0.00 63 1006.6
20260505173533 6 281 9.7 20.9 0.00 0.08 0.00 63 1006.6
20260505173047 6 309 11.3 20.9 0.00 0.08 0.00 62 1006.6
20260505172533 6 257 9.7 19.3 0.00 0.08 0.00 62 1006.6
20260505172033 6 275 8.0 19.3 0.00 0.08 0.00 62 1006.6
20260505171548 6 290 11.3 19.3 0.00 0.08 0.00 62 1006.6
20260505171037 6 275 11.3 19.3 0.00 0.08 0.00 61 1006.5
20260505170533 6 265 12.9 20.9 0.00 0.08 0.00 61 1006.6
20260505170046 6 269 11.3 20.9 0.00 0.08 0.00 59 1006.5
20260505165533 6 294 12.9 19.3 0.00 0.08 0.00 59 1006.6
20260505165037 6 250 9.7 19.3 0.00 0.08 0.00 60 1006.5
20260505164544 6 261 8.0 19.3 0.00 0.08 0.00 60 1006.5
20260505164037 6 269 11.3 20.9 0.00 0.08 0.00 59 1006.4
20260505163536 7 308 11.3 20.9 0.00 0.08 0.00 58 1006.4
20260505163054 7 281 14.5 20.9 0.00 0.08 0.00 57 1006.4
20260505162538 7 260 8.0 19.3 0.00 0.08 0.00 58 1006.3
20260505162034 7 298 11.3 20.9 0.00 0.08 0.00 59 1006.3
20260505161545 7 304 11.3 22.5 0.00 0.08 0.00 57 1006.2
20260505161034 7 281 11.3 22.5 0.00 0.08 0.00 55 1006.2
20260505160536 7 288 11.3 22.5 0.00 0.08 0.00 55 1006.2
20260505153102 8 281 12.9 30.6 0.00 0.08 0.00 54 1006.0
20260505152539 8 274 16.1 27.4 0.00 0.08 0.00 53 1005.8
20260505152039 8 262 14.5 27.4 0.00 0.08 0.00 54 1005.9
20260505151549 8 261 12.9 27.4 0.00 0.08 0.00 55 1005.9
20260505151037 8 243 11.3 27.4 0.00 0.08 0.00 54 1006.0
20260505150539 8 250 16.1 25.7 0.00 0.08 0.00 53 1005.9
20260505150109 8 275 16.1 25.7 0.00 0.08 0.00 52 1005.9
20260505140535 9 290 12.9 27.4 0.00 0.08 0.00 54 1005.6
20260505125038 9 259 11.3 33.8 0.00 0.08 0.00 58 1005.3
20260505124543 9 310 17.7 33.8 0.00 0.08 0.00 57 1005.2
20260505124038 9 263 16.1 30.6 0.00 0.08 0.00 57 1005.2
20260505123537 9 269 17.7 32.2 0.00 0.08 0.00 54 1005.2
20260505123105 9 270 14.5 32.2 0.00 0.08 0.00 56 1005.2
20260505122537 9 290 16.1 29.0 0.00 0.08 0.00 57 1005.2
20260505122037 9 262 16.1 27.4 0.00 0.08 0.00 57 1005.1
20260505121543 9 267 14.5 27.4 0.00 0.08 0.00 57 1005.0
20260505121040 9 316 16.1 25.7 0.00 0.08 0.00 58 1005.0
20260505120537 9 271 16.1 30.6 0.00 0.08 0.00 58 1004.9
20260505120052 9 282 19.3 30.6 0.00 0.08 0.00 56 1004.9
20260505115536 8 279 16.1 27.4 0.00 0.08 0.00 58 1004.9
20260505115037 8 277 16.1 37.0 0.00 0.08 0.00 54 1004.8
20260505114553 8 280 16.1 37.0 0.00 0.08 0.00 55 1004.7
20260505114038 8 274 17.7 33.8 0.00 0.08 0.00 53 1004.6
20260505113537 8 302 11.3 33.8 0.00 0.08 0.00 55 1004.7
20260505113051 9 284 17.7 33.8 0.00 0.08 0.00 52 1004.6
20260505112536 10 273 19.3 32.2 0.00 0.08 0.00 53 1004.6
20260505112036 10 276 20.9 32.2 0.00 0.08 0.00 52 1004.5
20260505111546 10 265 19.3 30.6 0.00 0.08 0.00 54 1004.3
20260505111038 10 288 17.7 40.2 0.00 0.08 0.00 52 1004.3
20260505110538 10 241 20.9 40.2 0.00 0.08 0.00 52 1004.3